AMOS-5                  
1 37950U 11074A   19263.92618556 -.00000356  00000-0  00000-0 0  9995
2 37950   2.9693  83.2803 0001619 345.6011  12.1591  1.00351373 28312
LUCH 5A                 
1 37951U 11074B   19265.55526752 -.00000052  00000-0  00000+0 0  9995
2 37951   2.6741 124.5025 0003590  35.7134 207.8371  1.00274323 28523
BREEZE-M R/B            
1 37952U 11074C   19265.05382862 -.00000137  00000-0  00000+0 0  9997
2 37952   5.5778  60.1621 0727349 131.4758  73.1973  0.89626032 25189